TimeEDT,TemperatureF,Dew PointF,Humidity,Sea Level PressureIn,VisibilityMPH,Wind Direction,Wind SpeedMPH,Gust SpeedMPH,PrecipitationIn,Events,Conditions,WindDirDegrees,DateUTC
12:53 AM,39.0,26.1,60,30.11,10.0,Calm,Calm,-,N/A,,Clear,0,2013-05-13 04:53:00
1:53 AM,35.1,28.0,76,30.11,10.0,Calm,Calm,-,N/A,,Clear,0,2013-05-13 05:53:00
2:53 AM,32.0,28.0,85,30.10,10.0,South,3.5,-,N/A,,Clear,190,2013-05-13 06:53:00
3:53 AM,33.1,28.9,85,30.11,10.0,Calm,Calm,-,N/A,,Mostly Cloudy,0,2013-05-13 07:53:00
4:53 AM,35.1,28.9,78,30.11,10.0,Calm,Calm,-,N/A,,Mostly Cloudy,0,2013-05-13 08:53:00
5:53 AM,34.0,28.9,82,30.11,10.0,West,5.8,-,N/A,,Mostly Cloudy,260,2013-05-13 09:53:00
6:53 AM,34.0,28.9,82,30.12,10.0,West,4.6,-,N/A,,Clear,270,2013-05-13 10:53:00
7:53 AM,39.0,30.0,70,30.14,10.0,WNW,3.5,-,N/A,,Clear,300,2013-05-13 11:53:00
8:53 AM,42.1,28.0,58,30.16,10.0,NNW,8.1,-,N/A,,Mostly Cloudy,330,2013-05-13 12:53:00
9:53 AM,45.0,28.0,52,30.17,10.0,NNW,6.9,-,N/A,,Scattered Clouds,340,2013-05-13 13:53:00
10:53 AM,48.0,27.0,44,30.18,10.0,Variable,5.8,-,N/A,,Partly Cloudy,0,2013-05-13 14:53:00
11:53 AM,50.0,28.0,43,30.18,10.0,WNW,8.1,-,N/A,,Clear,300,2013-05-13 15:53:00
12:53 PM,51.1,27.0,39,30.18,10.0,Variable,4.6,18.4,N/A,,Scattered Clouds,0,2013-05-13 16:53:00
1:53 PM,52.0,27.0,38,30.17,10.0,West,11.5,-,N/A,,Mostly Cloudy,260,2013-05-13 17:53:00
2:53 PM,53.1,26.1,35,30.17,10.0,WNW,9.2,-,N/A,,Mostly Cloudy,300,2013-05-13 18:53:00
4:53 PM,57.0,25.0,29,30.12,10.0,NW,8.1,-,N/A,,Mostly Cloudy,310,2013-05-13 20:53:00
5:53 PM,55.9,23.0,28,30.12,10.0,WNW,11.5,17.3,N/A,,Partly Cloudy,300,2013-05-13 21:53:00
6:53 PM,55.9,23.0,28,30.11,10.0,West,9.2,-,N/A,,Clear,270,2013-05-13 22:53:00
8:53 PM,53.1,21.9,30,30.12,10.0,Calm,Calm,-,N/A,,Clear,0,2013-05-14 00:53:00
9:53 PM,45.0,28.9,53,30.13,10.0,Calm,Calm,-,N/A,,Clear,0,2013-05-14 01:53:00
10:53 PM,42.1,32.0,67,30.13,10.0,South,4.6,-,N/A,,Clear,170,2013-05-14 02:53:00
11:53 PM,42.1,32.0,67,30.12,10.0,SSE,5.8,-,N/A,,Clear,160,2013-05-14 03:53:00